EN

Hourly Weather Al Wakrah

Today, 20 January, Wednesday

Time Temperature Precipitation Wind Pressure Humidity
00:00 +16°C° 0 mm 5 mps 764 mmHg 71%
01:00 +17°C° 0 mm 4 mps 763 mmHg 72%
02:00 +15°C° 0 mm 4 mps 763 mmHg 72%
03:00 +15°C° 0 mm 5 mps 763 mmHg 72%
04:00 +15°C° 0 mm 4 mps 763 mmHg 72%
05:00 +15°C° 0 mm 4 mps 763 mmHg 72%
06:00 +15°C° 0 mm 4 mps 763 mmHg 73%
07:00 +18°C° 0 mm 4 mps 763 mmHg 65%
08:00 +19°C° 0 mm 3 mps 763 mmHg 56%
09:00 +21°C° 0 mm 3 mps 763 mmHg 48%
10:00 +24°C° 0 mm 2 mps 763 mmHg 42%
11:00 +25°C° 0 mm 2 mps 763 mmHg 36%
12:00 +26°C° 0 mm 1 mps 763 mmHg 30%
13:00 +26°C° 0 mm 2 mps 762 mmHg 32%
14:00 +26°C° 0 mm 2 mps 762 mmHg 34%
15:00 +26°C° 0 mm 3 mps 761 mmHg 38%
16:00 +25°C° 0 mm 3 mps 762 mmHg 46%
17:00 +22°C° 0 mm 3 mps 762 mmHg 54%
18:00 +20°C° 0 mm 2 mps 762 mmHg 62%
19:00 +20°C° 0 mm 2 mps 762 mmHg 63%
20:00 +19°C° 0 mm 2 mps 762 mmHg 64%
21:00 +20°C° 0 mm 1 mps 762 mmHg 65%
22:00 +20°C° 0 mm 1 mps 762 mmHg 63%
23:00 +19°C° 0 mm 2 mps 762 mmHg 60%

Tomorrow, 21 January, Thursday

Time Temperature Precipitation Wind Pressure Humidity
00:00 +19°C° 0 mm 2 mps 762 mmHg 58%
01:00 +19°C° 0 mm 2 mps 762 mmHg 57%
02:00 +19°C° 0 mm 3 mps 761 mmHg 56%
03:00 +19°C° 0 mm 4 mps 761 mmHg 55%
04:00 +19°C° 0 mm 5 mps 762 mmHg 55%
05:00 +18°C° 0 mm 7 mps 762 mmHg 56%
06:00 +17°C° 0 mm 8 mps 763 mmHg 56%
07:00 +18°C° 0 mm 9 mps 764 mmHg 54%
08:00 +21°C° 0 mm 11 mps 764 mmHg 52%
09:00 +22°C° 0 mm 12 mps 765 mmHg 49%
10:00 +22°C° 0 mm 12 mps 765 mmHg 46%
11:00 +23°C° 0 mm 12 mps 765 mmHg 43%
12:00 +23°C° 0 mm 11 mps 765 mmHg 40%
13:00 +22°C° 0 mm 11 mps 765 mmHg 41%
14:00 +22°C° 0 mm 12 mps 765 mmHg 41%
15:00 +21°C° 0 mm 12 mps 765 mmHg 42%
16:00 +19°C° 0 mm 11 mps 765 mmHg 46%
17:00 +17°C° 0 mm 11 mps 765 mmHg 49%
18:00 +16°C° 0 mm 10 mps 766 mmHg 53%
19:00 +16°C° 0 mm 10 mps 766 mmHg 56%
20:00 +14°C° 0 mm 10 mps 766 mmHg 59%
21:00 +14°C° 0 mm 10 mps 766 mmHg 63%
22:00 +13°C° 0 mm 10 mps 766 mmHg 63%
23:00 +13°C° 0 mm 10 mps 766 mmHg 64%

Day after tomorrow, 22 January, Friday

Time Temperature Precipitation Wind Pressure Humidity
00:00 +13°C° 0 mm 10 mps 766 mmHg 64%
01:00 +13°C° 0 mm 10 mps 766 mmHg 64%
02:00 +13°C° 0 mm 10 mps 765 mmHg 64%
03:00 +13°C° 0 mm 11 mps 765 mmHg 64%
04:00 +13°C° 0 mm 10 mps 765 mmHg 67%
05:00 +12°C° 0 mm 10 mps 766 mmHg 69%
06:00 +12°C° 0 mm 10 mps 766 mmHg 72%
07:00 +13°C° 0 mm 10 mps 766 mmHg 65%
08:00 +16°C° 0 mm 11 mps 766 mmHg 59%
09:00 +17°C° 0 mm 11 mps 767 mmHg 53%
10:00 +18°C° 0 mm 11 mps 766 mmHg 50%
11:00 +18°C° 0 mm 11 mps 766 mmHg 47%
12:00 +19°C° 0 mm 11 mps 766 mmHg 44%
13:00 +19°C° 0 mm 11 mps 765 mmHg 44%
14:00 +18°C° 0 mm 11 mps 765 mmHg 45%
15:00 +18°C° 0 mm 11 mps 765 mmHg 46%
16:00 +17°C° 0 mm 10 mps 765 mmHg 52%
17:00 +16°C° 0 mm 10 mps 765 mmHg 58%
18:00 +13°C° 0 mm 9 mps 766 mmHg 65%
19:00 +13°C° 0 mm 8 mps 766 mmHg 68%
20:00 +12°C° 0 mm 8 mps 766 mmHg 71%
21:00 +12°C° 0 mm 7 mps 766 mmHg 74%
22:00 +12°C° 0 mm 7 mps 766 mmHg 76%
23:00 +11°C° 0 mm 7 mps 766 mmHg 79%

23 January, Saturday

Time Temperature Precipitation Wind Pressure Humidity
00:00 +11°C° 0 mm 7 mps 766 mmHg 82%
01:00 +11°C° 0 mm 7 mps 765 mmHg 82%
02:00 +11°C° 0 mm 7 mps 765 mmHg 82%
03:00 +11°C° 0 mm 7 mps 765 mmHg 82%
04:00 +11°C° 0 mm 6 mps 765 mmHg 81%
05:00 +11°C° 0 mm 6 mps 766 mmHg 81%
06:00 +11°C° 0 mm 6 mps 766 mmHg 80%
07:00 +14°C° 0 mm 6 mps 766 mmHg 73%
08:00 +16°C° 0 mm 6 mps 767 mmHg 65%
09:00 +19°C° 0 mm 6 mps 767 mmHg 58%
10:00 +20°C° 0 mm 6 mps 767 mmHg 55%
11:00 +21°C° 0 mm 5 mps 766 mmHg 52%
12:00 +22°C° 0 mm 5 mps 766 mmHg 49%
13:00 +22°C° 0 mm 5 mps 765 mmHg 50%
14:00 +22°C° 0 mm 5 mps 765 mmHg 52%
15:00 +22°C° 0 mm 5 mps 765 mmHg 53%
16:00 +21°C° 0 mm 5 mps 765 mmHg 58%
17:00 +20°C° 0 mm 4 mps 765 mmHg 63%
18:00 +19°C° 0 mm 4 mps 765 mmHg 68%
19:00 +18°C° 0 mm 4 mps 765 mmHg 68%
20:00 +18°C° 0 mm 4 mps 766 mmHg 68%
21:00 +17°C° 0 mm 4 mps 766 mmHg 68%
22:00 +17°C° 0 mm 4 mps 766 mmHg 69%
23:00 +15°C° 0 mm 4 mps 765 mmHg 70%

24 January, Sunday

Time Temperature Precipitation Wind Pressure Humidity
00:00 +15°C° 0 mm 4 mps 765 mmHg 72%
01:00 +14°C° 0 mm 4 mps 765 mmHg 72%
02:00 +14°C° 0 mm 4 mps 765 mmHg 73%
03:00 +14°C° 0 mm 5 mps 765 mmHg 74%
04:00 +14°C° 0 mm 5 mps 765 mmHg 75%
05:00 +14°C° 0 mm 5 mps 765 mmHg 76%
06:00 +14°C° 0 mm 5 mps 766 mmHg 76%
07:00 +15°C° 0 mm 5 mps 766 mmHg 70%
08:00 +17°C° 0 mm 5 mps 766 mmHg 63%
09:00 +19°C° 0 mm 5 mps 767 mmHg 56%
10:00 +21°C° 0 mm 4 mps 766 mmHg 51%
11:00 +22°C° 0 mm 3 mps 766 mmHg 45%
12:00 +24°C° 0 mm 3 mps 766 mmHg 39%
13:00 +24°C° 0 mm 3 mps 765 mmHg 39%
14:00 +23°C° 0 mm 4 mps 765 mmHg 39%
15:00 +23°C° 0 mm 4 mps 764 mmHg 39%
16:00 +22°C° 0 mm 5 mps 764 mmHg 44%
17:00 +20°C° 0 mm 5 mps 765 mmHg 50%
18:00 +17°C° 0 mm 5 mps 765 mmHg 55%
19:00 +16°C° 0 mm 5 mps 765 mmHg 59%
20:00 +16°C° 0 mm 5 mps 765 mmHg 63%
21:00 +15°C° 0 mm 4 mps 765 mmHg 67%
22:00 +15°C° 0 mm 4 mps 765 mmHg 70%
23:00 +14°C° 0 mm 4 mps 765 mmHg 74%

25 January, Monday

Time Temperature Precipitation Wind Pressure Humidity
00:00 +14°C° 0 mm 4 mps 764 mmHg 77%
01:00 +14°C° 0 mm 5 mps 764 mmHg 78%
02:00 +14°C° 0 mm 5 mps 764 mmHg 79%
03:00 +14°C° 0 mm 5 mps 764 mmHg 81%
04:00 +14°C° 0 mm 5 mps 764 mmHg 81%
05:00 +14°C° 0 mm 5 mps 764 mmHg 81%
06:00 +13°C° 0 mm 5 mps 765 mmHg 81%
07:00 +15°C° 0 mm 5 mps 765 mmHg 72%
08:00 +17°C° 0 mm 5 mps 765 mmHg 64%
09:00 +20°C° 0 mm 6 mps 766 mmHg 55%
10:00 +21°C° 0 mm 5 mps 765 mmHg 47%
11:00 +23°C° 0 mm 5 mps 765 mmHg 39%
12:00 +26°C° 0 mm 4 mps 765 mmHg 31%
13:00 +26°C° 0 mm 4 mps 764 mmHg 31%
14:00 +26°C° 0 mm 5 mps 764 mmHg 32%
15:00 +26°C° 0 mm 5 mps 764 mmHg 32%
16:00 +23°C° 0 mm 5 mps 764 mmHg 39%
17:00 +21°C° 0 mm 5 mps 764 mmHg 46%
18:00 +19°C° 0 mm 5 mps 765 mmHg 53%
19:00 +17°C° 0 mm 5 mps 765 mmHg 59%
20:00 +17°C° 0 mm 5 mps 765 mmHg 64%
21:00 +17°C° 0 mm 4 mps 765 mmHg 70%
22:00 +17°C° 0 mm 4 mps 765 mmHg 71%
23:00 +15°C° 0 mm 5 mps 765 mmHg 73%
Show more